www.pogodaiklimat.ru

Погода и климат >> Архив погоды >> Россия >> Крым >> Симферополь


АРХИВ ПОГОДЫ в Симферополе

Время (UTC), дата Ветер
(напр.,м/с)
 
Видим.   Явления Облачность Т
(С)
Тd
(С)
f
(%)
Тe
(С)
Тes
(С)
Комфортность P
(гПа)
Po
(гПа)
Тmin
(С)
Tmax
(С)
R
(мм)
S
(см)
06 16.03 ЮЗ 4 6000 м дымка {дождь} 10/10 1380 м
[Sc]
+5.4 +4.2 92 +1 +1 по сезону 1014.9 992.7 +2.7
09 16.03 ЮЗ 6 10 км 10/10 1000 м
[Sc]
+8.7 +2.3 64 +5 +5 тепло 1014.1 992.2
12 16.03 ЮЗ 7-10
{10}
10 км 10/8 1300 м
[Sc Ac und]
+7.7 +4.5 80 +3 +3 по сезону 1013.0 991.0
15 16.03 З 5 5000 м дымка 10/10 600 м
[Sc]
+5.8 +4.6 92 +1 +1 по сезону 1012.8 990.7
18 16.03 ЮЗ 3 3600 м дымка {дождь} 9/4 240 м
[St Ac trans]
+4.2 +3.8 97 0 0 по сезону 1013.6 991.3 +9.7 0.5
21 16.03 Ю 4 10 км 10/0
[Ci fib]
+2.4 +2.1 98 -3 -3 по сезону 1013.0 990.6
00 17.03 Ю 4 10 км 10/0
[Ac und]
+2.7 +2.1 96 -2 -2 по сезону 1012.5 990.1
03 17.03 ЮВ 4 10 км 10/0
[As trans]
+3.1 +1.9 92 -2 -2 по сезону 1012.1 989.8
06 17.03 Ю 4 10 км 10/3 1000 м
[Cb calv Ac und]
+5.6 +2.8 82 +2 +2 по сезону 1012.6 990.5 +1.2
09 17.03 Ю 5 10 км {дождь} 10/4 1000 м
[Sc Ac As]
+8.1 +1.3 62 +5 +6 по сезону 1012.8 990.9
12 17.03 ЮВ 4
{10}
10 км {ливн. осадки, дождь} 10/8 1500 м
[Cb calv Ac und]
+7.5 +1.4 65 +4 +5 по сезону 1012.9 990.9
15 17.03 З 3 10 км в посл. час ливневой дождь 10/4 600 м
[Cb calv Ac und]
+5.6 +2.9 83 +2 +2 по сезону 1013.5 991.4
18 17.03 С 2 10 км слабый дождь {ливн. осадки} 10/8 1300 м
[Sc As op]
+4.4 +3.7 95 +1 +1 по сезону 1014.5 992.2 +8.8 0.2
21 17.03 ЮВ 1 10 км {дождь} 8/4 1000 м
[Sc Ci fib]
+2.1 +1.4 95 0 0 по сезону 1014.5 992.0
00 18.03 ЮВ 2 10 км {дождь} 10/10 1380 м
[Sc]
+3.3 +2.6 95 0 0 по сезону 1014.2 991.9
03 18.03 Ю 3 10 км 10/10 1000 м
[Sc]
+2.6 +1.6 93 -2 -2 по сезону 1014.0 991.6
06 18.03 Ю 3 10 км 9/9 600 м
[Sc]
+4.6 +2.6 87 +1 +1 по сезону 1014.2 992.0 +1.0 0.0
09 18.03 10 км н/о +8.2 +0.4 58 +5 +6 по сезону 1013.8 991.8
12 18.03 ЮЗ 8-12
{12}
10 км 8/8 1000 м
[Sc]
+8.8 0.0 54 +5 +5 по сезону 1012.2 990.3
15 18.03 ЮЗ 9 10 км 10/5 600 м
[Sc Ci fib]
+6.4 +0.9 68 +1 +1 по сезону 1011.5 989.5
18 18.03 Ю 6
{12}
10 км 10/0
[Ac und]
+5.2 +0.2 70 0 0 по сезону 1009.8 987.7 +9.3
21 18.03 Ю 7 10 км слабый дождь 10/5 1000 м
[Sc As op]
+5.8 -0.5 64 +1 +1 по сезону 1007.5 985.5
00 19.03 Ю 8-13
{13}
10 км слабый ливневой дождь 10/10 1170 м
[Cb calv]
+5.3 +3.5 88 -1 -1 по сезону 1005.2 983.2
03 19.03 Ю 9 10 км слабый ливневой дождь 10/10 1000 м
[Cb calv]
+5.6 +3.9 89 -0 -0 по сезону 1003.1 981.2
06 19.03 Ю 7-10
{12}
10 км слабый дождь {ливн. осадки} 10/8 700 м
[Frnb As op]
+6.8 +5.7 93 +2 +2 по сезону 1002.5 980.7 +5.0 4
09 19.03 Ю 8-12
{13}
10 км {дождь} 10/8 450 м
[St Ac und]
+8.4 +6.2 86 +4 +4 по сезону 1001.5 979.8
12 19.03 ЮЗ 8-12
{13}
10 км {дождь} 10/10 840 м
[Sc]
+10.8 +7.9 82 +7 +7 по сезону 1001.3 979.8
15 19.03 ЮЗ 4
{12}
10 км слабый дождь 10/3 300 м
[Frnb As op]
+6.9 +5.5 91 +3 +3 по сезону 1002.1 980.3 1
21 19.03 З 3 10 км {ливн. осадки} 10/0
[Ac und]
+3.8 +3.4 97 -0 -0 по сезону 1004.0 981.9
00 20.03 З 3 10 км {ливн. осадки} 10/0
[Ac und]
+2.4 +1.4 93 -2 -2 по сезону 1005.5 983.3
03 20.03 ЮЗ 2 10 км 1/0
[Ac trans]
+0.5 -0.5 93 -3 -3 по сезону 1007.7 985.3 -1.0 5
06 20.03 ЮЗ 3 10 км 10/10 1000 м
[Sc]
+2.2 +1.2 93 -2 -2 по сезону 1009.0 986.7 -1.0 0.3
09 20.03 З 8-11
{11}
10 км 10/10 1080 м
[Sc]
+5.4 +2.1 79 -0 -0 по сезону 1009.6 987.5
12 20.03 З 8-12
{12}
10 км 10/10 1020 м
[Sc]
+6.1 +2.0 75 +1 +1 по сезону 1010.4 988.4
15 20.03 ЮЗ 6 10 км 10/3 600 м
[Sc Ac und]
+5.5 +2.0 78 +1 +1 по сезону 1011.7 989.6
18 20.03 Ю 3 10 км 10/3 600 м
[Sc Ac und]
+3.9 +2.3 89 0 0 по сезону 1013.4 991.1 +6.2
21 20.03 Ю 3 10 км 10/0
[Ac und]
+3.8 +1.8 87 0 0 по сезону 1013.7 991.4
00 21.03 Ю 4 10 км 10/0
[Ac und]
+4.0 +1.0 81 -0 -0 по сезону 1013.7 991.4
03 21.03 Ю 3 10 км 10/3 300 м
[St Ac und]
+3.6 +0.5 80 -0 -0 по сезону 1014.5 992.2 +3.5
06 21.03 Ю 3 10 км 10/3 240 м
[St Ac und]
+6.8 +3.8 81 +4 +5 по сезону 1015.5 993.4 +3.5
09 21.03 З 2 10 км 6/6 1380 м
[Sc]
+10.0 +0.9 53 +9 +13 тепло 1015.8 993.9
12 21.03 СЗ 3 10 км 5/4 1440 м
[Sc Ac trans]
+12.5 -1.4 38 +11 +15 тепло 1015.0 993.3
15 21.03 СЗ 4 10 км 10/0
[Ac und]
+9.2 +1.6 59 +7 +7 тепло 1016.1 994.2
18 21.03 Ю 2 10 км 10/0
[Ac und]
+6.5 +4.2 85 +4 +4 по сезону 1017.8 995.6 +13.0
21 21.03 Ю 1 10 км 3/0
[Ac trans]
+5.1 +4.2 94 +4 +4 тепло 1018.8 996.5
00 22.03 ЮВ 2 10 км в посл. час туман 3/3 200 м
[St]
+3.2 +2.2 93 0 0 по сезону 1019.5 997.0
03 22.03 В 3 10 км ясно +2.5 +0.7 88 -2 -2 по сезону 1020.5 997.9 +1.7
06 22.03 В 3 10 км ясно +6.6 +2.1 73 +4 +7 по сезону 1021.5 999.3 +1.7
09 22.03 В 4 10 км ясно +11.6 -4.1 33 +10 +18 тепло 1021.3 999.4
12 22.03 С 3 10 км ясно +13.7 -1.9 34 +13 +20 тепло 1020.3 998.6
15 22.03 З 6 10 км ясно +9.6 +3.6 66 +6 +6 по сезону 1021.2 999.2
18 22.03 Ю 1 10 км ясно +5.5 +2.7 82 +4 +4 по сезону 1022.9 1000.5 +14.5
21 22.03 Ю 2 10 км ясно +3.4 +2.4 93 0 0 по сезону 1023.3 1000.8
00 23.03 ЮВ 3 10 км ясно +2.0 +0.4 89 -2 -2 по сезону 1023.3 1000.6
03 23.03 ЮВ 3 10 км ясно +1.4 -0.5 87 -3 -3 прохладно 1023.5 1000.8 +0.8

 

Местоположение метеостанции Симферополь (Крым, Россия): широта 45.03 долгота 33.97 высота над уровнем моря 181 м.

В архиве по умолчанию представлена погода в Симферополе за последнюю неделю. Архивные данные за месяц целиком и за предыдущие месяцы, начиная с января 2011 года, Вы можете получить, выбрав интересующий диапазон дат из раскрывающегося списка и нажав кнопку "Ввод!".

Внимание! Время в таблицах - всемирное. Для получения местного времени необходимо прибавить поправку, которая в Симферополе равна 3 ч.

Смотрите также архив погоды в соседних городах и на ближайших метеорологических станциях:

Погода в Белогорске (Крым, Россия) (50 км)
Погода в Евпатории (Крым, Россия) (50 км)
Погода в Алуште (Крым, Россия) (52 км)
Погода в Севастополе (город Севастополь, Россия) (57 км)
Погода в Клепинино (Крым, Россия) (58 км)
Погода в Никитском саду (Крым, Россия) (61 км)
Погода в Ай-Петри (Крым, Россия) (63 км)
Погода в Ялте (Крым, Россия) (63 км)
Погода в Херсонесском Маяке (город Севастополь, Россия) (68 км)
Погода в Стрелковом (Херсонская область, Украина) (74 км)

Пояснения к столбцам:

Ветер - указаны скорость ветра в м/с - средняя за 10 мин, порывы в срок и между сроками (в фигурных скобках) и направление, откуда дует ветер: С - северный, СВ - северо-восточный, В - восточный, ЮВ - юго-восточный, Ю - южный, ЮЗ - юго-западный, З - западный, СЗ - северо-западный.
Видимость - горизонтальная дальность видимости в метрах или километрах. При видимости от 1 до 10 км при отсутствии осадков обычно наблюдается дымка, при ухудшении видимости до 1 км и менее - туман. В сухую погоду видимость может ухудшаться дымом, пылью или мглою.
Явления - указаны атмосферные явления, наблюдавшиеся в срок или в последний час перед сроком; фигурными скобками обозначены явления, наблюдавшиеся между сроками (за 1-3 часа до срока); квадратными скобками обозначены град или гололедные отложения с указанием их диаметра в мм.
Облачность - указаны через наклонную черту общая и нижняя облачность в баллах и высота нижней границы облаков в метрах; квадратными скобками обозначены формы облаков: Ci - перистые, Cs - перисто-слоистые, Cc - перисто-кучевые, Ac - высококучевые, As - высокослоистые, Sc - слоисто-кучевые, Ns - слоисто-дождевые, Cu - кучевые, Cb - кучево-дождевые. Подробнее классификацию облаков см. в Атласе облаков (PDF).
T - Температура воздуха - температура, измеренная на высоте 2 м над землей.
Td - Температура точки росы - температура, при понижении до которой содержащийся в воздухе водяной пар достигнет насыщения.
f - Относительная влажность воздуха - влажноcть воздуха, измеренная на высоте 2 м над землей.
Te - Эффективная температура - температура, которую ощущает одетый по сезону человек в тени. Характеристика душности погоды. При расчете учитывается влияние влажности воздуха и скорости ветра на теплоощущения человека.
Tes - Эффективная температура на солнце - температура, которую ощущает человек, с поправкой на солнечный нагрев. Характеристика знойности погоды. Зависит от высоты солнца над горизонтом, облачности и скорости ветра. Ночью, в пасмурную погоду, а также при ветре 12 м/с и более поправка равна нулю.
P - Атмосферное давление - приведенное к уровню моря атмосферное давление.
Po - Атмосферное давление - измеренное на уровне метеостанции атмосферное давление.
Tmin - Минимальная температура - минимум температуры воздуха на высоте 2 м над землей.
Tmax - Максимальная температура - максимум температуры воздуха на высоте 2 м над землей.
R - Количество осадков - Количество выпавших осадков, мм. При наведении курсора мыши на число - период времени, за который выпало указанное количество осадков.
S - Снежный покров - Высота снежного покрова, см. При наведении курсора мыши на число - состояние снежного покрова и степень покрытия местности в баллах.